Weather in Demydivka

Ukraine / Poltava Region     49°15′01″N   33°31′44″E
temp.,
°C
wind,
m/s
gust,
m/s
humid.,
%
clouds,
%
prec.,
mm/h
press.,
hPa
HPBL,
m
13 may, thu
thu1300:00+6ne129145 0.0 101212
03:00+5wnw119320 0.0 101210
06:00+7sse119057 0.0 101234
09:00+12s346698 0.0 1012890
12:00+15sse455299 0.0 10121396
15:00+18ssw46436 0.0 10121833
18:00+17sse3556100 0.0 1011368
21:00+14se4764100 0.0 1012145
14 may, fri
fri1400:00+12ese356795 0.0 101172
03:00+12e4869100 0.0 1010160
06:00+12ese378693 0.1 1010161
09:00+18se467387 0.1 1008509
12:00+22s575340 0.0 10081468
15:00+23s68473 0.0 10071763
18:00+22s695646 0.0 1007940
21:00+16sw378010 0.3 1008118
15 may, sat
sat1500:00+13sw339018 0.0 101039
03:00+12ssw2292100 0.0 101019
06:00+12ssw349255 0.0 101180
09:00+16s347775 0.0 1012343
12:00+22ssw575399 0.1 10121663
15:00+23wsw5847100 0.1 10112436
18:00+19sw236699 0.0 101263
21:00+16n117399 0.0 101211
16 may, sun
sun1600:00+14n337793 0.0 101320
03:00+13ne33854 0.0 101340
06:00+13ene35870 0.0 101387
09:00+19ene4567100 0.0 1013501
12:00+23e445399 0.0 10121337
15:00+25ene4543100 0.0 10112291
18:00+24ene465398 0.0 1009451
21:00+20ne4868100 0.0 1008170
17 may, mon
mon1700:00+18ne51179100 0.0 1007229
03:00+16ne3791100 1.4 1005123
06:00+16ne3489100 0.1 100472
09:00+20e467299 0.1 1003418
12:00+23se5765100 0.1 1003950
15:00+26se67554 0.1 10021656
18:00+20ssw488399 5.0 1003192
21:00+17w599475 7.1 1005321